This demonstration page uses our WeatherBlox Daily Observations layout. Learn more.

40.92945, -100.16068

Hourly Observations for April 27, 2017

Temp ( °F °C ) Dew Point ( °F °C ) Humidity (%) Winds ( mph kmh ) Pressure ( in mb ) Visibility ( mi km ) Precip ( " mm )
12:15 am 00:15 Clear 32 -0.2 27 -2.6 84 84 NE 3 6 29.83 1010 10 16.0934 0 0
12:35 am 00:35 Clear 32 0 28 -2.4 84 84 Calm 29.83 1010 10 16.0934 0 0
12:55 am 00:55 Clear 33 0.6 28 -2.1 82 82 NE 3 6 29.83 1010 10 16.0934 0 0
1:15 am 01:15 Clear 32 0.1 28 -2.1 85 85 NE 3 6 29.83 1010 10 16.0934 0 0
1:35 am 01:35 Partly Cloudy 31 -0.3 28 -2.2 87 87 WSW 6 9 29.83 1010 10 16.0934 0 0
1:55 am 01:55 Partly Cloudy 32 0 29 -1.7 88 88 SW 5 7 29.83 1010 10 16.0934 0 0
2:15 am 02:15 Clear 32 0.1 29 -1.5 89 89 SW 7 11 29.83 1010 10 16.0934 0 0
2:35 am 02:35 Clear 32 0 29 -1.7 88 88 SW 6 9 29.83 1010 10 16.0934 0 0
2:55 am 02:55 Clear 32 0 29 -1.9 87 87 WSW 3 6 29.83 1010 10 16.0934 0 0
3:15 am 03:15 Clear 31 -0.5 27 -2.6 86 86 Calm 29.8 1009 10 16.0934 0 0
3:35 am 03:35 Clear 31 -0.7 28 -2.5 88 88 W 3 6 29.8 1009 10 16.0934 0 0
3:55 am 03:55 Clear 30 -1.1 27 -2.6 90 90 WNW 3 6 29.8 1009 10 16.0934 0 0
4:15 am 04:15 Clear 29 -1.6 26 -3.1 90 90 WNW 3 6 29.8 1009 10 16.0934 0 0
4:35 am 04:35 Clear 28 -2.2 26 -3.5 91 91 N 5 7 29.83 1010 10 16.0934 0 0
4:55 am 04:55 Clear 28 -2 26 -3.4 90 90 N 5 7 29.8 1009 10 16.0934 0 0
5:15 am 05:15 Clear 27 -2.6 25 -3.7 92 92 NW 3 6 29.83 1010 10 16.0934 0 0
5:35 am 05:35 Clear 28 -2.2 26 -3.2 93 93 NNE 3 6 29.83 1010 10 16.0934 0 0
5:55 am 05:55 Clear 28 -2.4 26 -3.4 93 93 Calm 29.83 1010 10 16.0934 0 0
6:15 am 06:15 Clear 27 -2.9 24 -4.3 90 90 Calm 29.83 1010 10 16.0934 0 0
6:35 am 06:35 Clear 27 -2.7 25 -4 91 91 Calm 29.83 1010 10 16.0934 0 0
6:55 am 06:55 Sunny 27 -3 24 -4.2 92 92 Calm 29.83 1010 10 16.0934 0 0
7:15 am 07:15 Partly Cloudy 27 -2.7 25 -4.1 90 90 Calm 29.83 1010 10 16.0934 0 0
7:35 am 07:35 Sunny 28 -2.2 26 -3.6 90 90 Calm 29.83 1010 10 16.0934 0 0
7:55 am 07:55 Sunny 30 -0.9 28 -2.1 92 92 Calm 29.8 1009 10 16.0934 0 0
8:15 am 08:15 Sunny 33 0.7 31 -0.7 90 90 Calm 29.8 1009 10 16.0934 0 0
8:35 am 08:35 Partly Cloudy 36 2 32 -0.2 86 86 Calm 29.77 1008 10 16.0934 0 0
8:55 am 08:55 Partly Cloudy 38 3.5 32 0 78 78 Calm 29.77 1008 10 16.0934 0 0
9:15 am 09:15 Partly Cloudy 40 4.6 32 -0.2 71 71 Calm 29.74 1007 10 16.0934 0 0
9:35 am 09:35 Partly Cloudy 42 5.5 32 -0.2 67 67 Calm 29.74 1007 10 16.0934 0 0
9:55 am 09:55 Mostly Cloudy 43 5.9 31 -0.8 62 62 E 5 7 29.74 1007 10 16.0934 0 0
10:15 am 10:15 Cloudy 43 6.2 31 -0.5 63 63 E 7 11 29.74 1007 10 16.0934 0 0
10:35 am 10:35 Cloudy 45 7 31 -0.4 60 60 ESE 6 9 29.71 1006 10 16.0934 0 0
10:55 am 10:55 Partly Cloudy 47 8.1 32 -0.1 57 57 E 8 13 29.71 1006 10 16.0934 0 0
11:15 am 11:15 Mostly Cloudy 47 8.2 31 -0.3 55 55 ESE 9 15 29.71 1006 10 16.0934 0 0
11:35 am 11:35 Mostly Cloudy 48 9.1 32 -0.1 53 53 ESE 8 13 29.71 1006 10 16.0934 0 0
11:55 am 11:55 Mostly Cloudy 49 9.3 33 0.3 54 54 ESE 8 13 29.71 1006 10 16.0934 0 0
12:15 pm 12:15 Mostly Cloudy 49 9.5 33 0.4 53 53 SE 10 17 29.71 1006 10 16.0934 0 0
12:35 pm 12:35 Cloudy 49 9.7 33 0.5 53 53 SE 10 17 29.71 1006 10 16.0934 0 0
12:55 pm 12:55 Cloudy 50 10 33 0.5 52 52 SE 13 20 29.71 1006 10 16.0934 0 0
1:15 pm 13:15 Cloudy 50 10.1 34 1 54 54 SE 12 19 29.71 1006 10 16.0934 0 0
1:35 pm 13:35 Cloudy 51 10.3 33 0.6 51 51 ESE 13 20 29.65 1004 10 16.0934 0 0
1:55 pm 13:55 Cloudy 52 10.9 34 1.1 51 51 ESE 14 22 29.65 1004 10 16.0934 0 0
2:15 pm 14:15 Cloudy 51 10.5 34 0.9 52 52 ESE 12 19 29.65 1004 10 16.0934 0 0
2:35 pm 14:35 Cloudy with Light Rain 49 9.6 36 2.2 60 60 ESE 12 19 29.68 1005 10 16.0934 0 0
2:55 pm 14:55 Cloudy 50 10.2 37 2.6 60 60 SE 12 19 29.65 1004 10 16.0934 0 0
3:15 pm 15:15 Mostly Cloudy 51 10.5 35 1.9 56 56 ESE 14 22 29.62 1003 10 16.0934 0 0
3:35 pm 15:35 Mostly Cloudy 51 10.5 36 2.1 56 56 ESE 12 19 29.62 1003 10 16.0934 0 0
3:55 pm 15:55 Mostly Cloudy 51 10.8 35 1.9 54 54 ESE 15 24 29.62 1003 10 16.0934 0 0
4:15 pm 16:15 Mostly Cloudy 53 11.5 36 2.2 53 53 ESE 15 24 29.62 1003 10 16.0934 0 0
4:35 pm 16:35 Partly Cloudy 54 12.2 37 2.7 53 53 ESE 13 20 29.62 1003 10 16.0934 0 0
4:55 pm 16:55 Mostly Cloudy 54 12.1 37 2.8 53 53 ESE 17 28 29.62 1003 10 16.0934 0 0
5:15 pm 17:15 Cloudy 54 12 37 2.5 53 53 ESE 16 26 29.62 1003 10 16.0934 0 0
5:35 pm 17:35 Cloudy 53 11.5 36 2 52 52 ESE 16 26 29.62 1003 10 16.0934 0 0
5:55 pm 17:55 Cloudy with Light Rain 53 11.5 37 2.5 54 54 ESE 13 20 29.62 1003 10 16.0934 0 0
6:15 pm 18:15 Cloudy with Light Drizzle 51 10.7 39 3.7 62 62 ESE 9 15 29.62 1003 10 16.0934 0 0
6:35 pm 18:35 Cloudy 52 11 37 2.6 56 56 SE 14 22 29.62 1003 10 16.0934 0 0
6:55 pm 18:55 Cloudy 51 10.6 38 3.1 60 60 SE 15 24 29.62 1003 10 16.0934 0 0
7:15 pm 19:15 Cloudy with Light Drizzle 50 9.8 40 4.4 69 69 SE 14 22 29.62 1003 10 16.0934 0 0
7:35 pm 19:35 Cloudy with Light Drizzle 48 9.1 40 4.6 74 74 SE 15 24 29.65 1004 10 16.0934 0 0
7:55 pm 19:55 Cloudy 48 9 40 4.4 73 73 SE 12 19 29.68 1005 10 16.0934 0 0
8:15 pm 20:15 Cloudy 48 8.7 40 4.2 74 74 ESE 12 19 29.68 1005 10 16.0934 0 0
8:35 pm 20:35 Cloudy 47 8.5 40 4.3 75 75 SE 13 20 29.68 1005 10 16.0934 0 0
8:55 pm 20:55 Cloudy 47 8.3 40 4.6 78 78 SE 13 20 29.68 1005 10 16.0934 0 0
9:15 pm 21:15 Cloudy 46 8 41 4.8 80 80 SE 12 19 29.68 1005 10 16.0934 0 0
9:35 pm 21:35 Cloudy with Light Rain 46 7.5 41 5.2 86 86 SE 10 17 29.71 1006 10 16.0934 0 0
9:55 pm 21:55 Cloudy with Light Rain 45 7.2 42 5.4 88 88 ESE 12 19 29.71 1006 10 16.0934 0 0
10:15 pm 22:15 Cloudy 45 7.1 42 5.4 89 89 ESE 12 19 29.71 1006 10 16.0934 0 0
10:35 pm 22:35 Cloudy 45 7.1 41 5.2 88 88 ESE 10 17 29.71 1006 10 16.0934 0 0
10:55 pm 22:55 Cloudy 45 7.1 41 5.1 87 87 ESE 10 17 29.71 1006 10 16.0934 0 0
11:15 pm 23:15 Cloudy 45 7.1 41 5 87 87 ESE 10 17 29.71 1006 10 16.0934 0 0
11:35 pm 23:35 Cloudy 45 7.1 41 5.1 87 87 ESE 10 17 29.71 1006 10 16.0934 0 0
11:55 pm 23:55 Cloudy 45 7.1 41 5.1 87 87 ESE 10 17 29.71 1006 10 16.0934 0 0

Powered by AerisWeather